Holbrook, NY

11:59 PM EST on February 26, 2017 (GMT -0500)
Long Island Mac Arthur

Weather History for KISP - October, 2013

Change the Weather History Date:

Sunday, October 6, 2013

  Actual Average Record
Temperature  
Mean Temperature 66 °F 58 °F  
Max Temperature 68 °F 66 °F 86 °F (1997)
Min Temperature 64 °F 49 °F 34 °F (1984)
Degree Days  
Heating Degree Days 0 8  
Month to date heating degree days 0 43  
Since 1 July heating degree days 83 120  
Cooling Degree Days 1 1  
Month to date cooling degree days 19 6  
Year to date cooling degree days 950 783  
Growing Degree Days 16 (Base 50)    
Moisture  
Dew Point 63 °F    
Average Humidity 97    
Maximum Humidity 100    
Minimum Humidity 93    
Precipitation  
Precipitation T in 0.13 in 0.50 in (1991)
Month to date precipitation T 0.74  
Year to date precipitation 30.39 35.46  
Snow  
Snow 0.00 in 0.00 in - ()
Month to date snowfall 0.0 0.0  
Since 1 July snowfall 0.0 0.0  
Snow Depth 0.00 in    
Sea Level Pressure  
Sea Level Pressure 30.08 in    
Wind  
Wind Speed 8 mph (ESE)    
Max Wind Speed 15 mph    
Max Gust Speed 20 mph    
Visibility 3 miles    
Events      
T = Trace of Precipitation, MM = Missing Value Source: NWS Daily Summary

Daily Weather History Graph

Daily Weather History Graph

Search for Another Location

Airport or City:

Trip Planner

Search our weather history database for the weather conditions in past years. The results will help you decide how hot, cold, wet, or windy it might be!

Date:

Astronomy

Oct. 06, 2013 Rise Set
Actual Time 6:54 AM EDT 6:25 PM EDT
Civil Twilight 6:26 AM EDT 6:53 PM EDT
Nautical Twilight 5:55 AM EDT 7:24 PM EDT
Astronomical Twilight 5:23 AM EDT 7:56 PM EDT
Moon 8:36 AM EDT (10/6) 7:22 PM EDT (10/6)
Length of Visible Light 12h 26m
Length of Day
11h 31m
Waxing Crescent, 3% of the Moon is Illuminated
Oct 6
Waxing Crescent
Oct 11
First Quarter
Oct 18
Full
Oct 26
Last Quarter
Nov 3
New

Hourly Weather History & Observations

Time (EDT) Temp. Dew Point Humidity Pressure Visibility Wind Dir Wind Speed Gust Speed Precip Events Conditions
12:25 AM 64.4 °F 62.6 °F 94% 30.08 in 6.0 mi SSE 6.9 mph - N/A   Overcast
12:56 AM 64.0 °F 62.1 °F 93% 30.09 in 3.0 mi ESE 6.9 mph - N/A   Overcast
1:56 AM 64.0 °F 62.1 °F 93% 30.09 in 3.0 mi SSE 5.8 mph - N/A   Overcast
2:06 AM 64.4 °F 62.6 °F 94% 30.08 in 2.0 mi SE 6.9 mph - N/A   Overcast
2:29 AM 64.4 °F 62.6 °F 94% 30.08 in 3.0 mi ESE 5.8 mph - N/A   Overcast
2:56 AM 64.0 °F 62.1 °F 93% 30.07 in 2.0 mi ESE 5.8 mph - N/A   Overcast
3:21 AM 64.4 °F 62.6 °F 94% 30.06 in 3.0 mi SE 6.9 mph - N/A   Overcast
3:30 AM 64.4 °F 62.6 °F 94% 30.07 in 2.5 mi SE 4.6 mph - N/A   Overcast
3:39 AM 64.4 °F 62.6 °F 94% 30.07 in 3.0 mi SE 5.8 mph - N/A   Overcast
3:56 AM 64.0 °F 63.0 °F 96% 30.06 in 2.0 mi SSE 4.6 mph - N/A   Overcast
4:30 AM 64.4 °F 62.6 °F 94% 30.07 in 4.0 mi SE 4.6 mph - N/A   Overcast
4:56 AM 64.0 °F 63.0 °F 96% 30.06 in 5.0 mi SE 5.8 mph - 0.00 in   Overcast
5:56 AM 64.9 °F 63.0 °F 93% 30.07 in 2.0 mi ESE 8.1 mph - 0.00 in   Light Drizzle
6:56 AM 64.9 °F 63.0 °F 93% 30.08 in 1.0 mi ESE 6.9 mph - 0.00 in   Light Drizzle
7:56 AM 64.0 °F 62.1 °F 93% 30.09 in 1.0 mi ESE 9.2 mph - 0.00 in   Light Drizzle
8:03 AM 64.4 °F 62.6 °F 94% 30.09 in 1.0 mi ESE 9.2 mph - 0.00 in   Light Drizzle
8:22 AM 64.4 °F 62.6 °F 94% 30.10 in 0.8 mi ESE 9.2 mph - 0.00 in   Light Drizzle
8:56 AM 64.0 °F 63.0 °F 96% 30.11 in 0.8 mi ESE 9.2 mph - 0.00 in   Light Drizzle
9:56 AM 64.0 °F 63.0 °F 96% 30.11 in 0.8 mi ESE 10.4 mph - 0.00 in   Light Drizzle
10:56 AM 64.0 °F 63.0 °F 96% 30.12 in 0.8 mi East 11.5 mph - 0.00 in   Light Drizzle
11:56 AM 64.9 °F 63.0 °F 93% 30.11 in 0.8 mi East 9.2 mph - 0.00 in   Light Drizzle
12:56 PM 64.9 °F 63.0 °F 93% 30.10 in 0.8 mi East 10.4 mph - 0.00 in   Light Drizzle
1:56 PM 64.0 °F 63.0 °F 96% 30.09 in 1.0 mi East 9.2 mph - 0.00 in   Light Drizzle
2:56 PM 64.9 °F 63.0 °F 93% 30.08 in 1.0 mi East 11.5 mph - 0.00 in   Light Drizzle
3:56 PM 64.9 °F 64.0 °F 97% 30.08 in 1.0 mi ESE 11.5 mph - 0.00 in   Overcast
4:56 PM 64.9 °F 63.0 °F 93% 30.08 in 1.0 mi East 10.4 mph - N/A   Overcast
5:56 PM 64.9 °F 64.0 °F 97% 30.08 in 1.5 mi East 8.1 mph - N/A   Overcast
6:56 PM 64.9 °F 64.0 °F 97% 30.08 in 2.0 mi East 9.2 mph - N/A   Overcast
7:56 PM 66.0 °F 64.0 °F 93% 30.08 in 6.0 mi East 6.9 mph - N/A   Overcast
8:56 PM 66.0 °F 64.0 °F 93% 30.08 in 6.0 mi East 8.1 mph - N/A   Overcast
9:56 PM 66.0 °F 64.0 °F 93% 30.07 in 6.0 mi ESE 6.9 mph - N/A   Overcast
10:56 PM 66.9 °F 64.9 °F 93% 30.06 in 6.0 mi ESE 8.1 mph - N/A   Overcast
11:49 PM 68.0 °F 66.2 °F 94% 30.05 in 4.0 mi SE 8.1 mph - N/A   Overcast
11:56 PM 68.0 °F 66.0 °F 93% 30.05 in 4.0 mi SE 8.1 mph - N/A   Overcast